FW9621 Weather Reports


time (UTC)temp
C
wind
direction
speed
KPH
gust
KPH
rain 1hr
cm
rain 24hr
cm
rain mn
cm
humidity
%
barometer
mb
20260906164517 33 29 8.0 16.1 0.00 0.51 0.00 48 1017.2
20260906163015 33 64 6.4 12.9 0.00 0.51 0.00 50 1017.3
20260906161510 32 94 8.0 12.9 0.00 0.51 0.00 52 1017.3
20260906160010 32 56 9.7 14.5 0.00 0.51 0.00 54 1017.4
20260906154532 32 76 8.0 12.9 0.00 0.51 0.00 54 1017.3
20260906153030 31 99 4.8 9.7 0.00 0.51 0.00 58 1017.2
20260906151527 31 104 6.4 16.1 0.00 0.51 0.00 58 1017.3
20260906150031 30 79 4.8 14.5 0.00 0.51 0.00 59 1017.1
20260906144519 30 105 8.0 14.5 0.00 0.51 0.00 62 1017.2
20260906143017 29 107 8.0 12.9 0.00 0.51 0.00 63 1017.0
20260906141511 28 98 6.4 11.3 0.00 0.51 0.00 65 1017.0
20260906140042 28 108 6.4 9.7 0.00 0.51 0.00 65 1017.0
20260906134527 27 131 3.2 4.8 0.00 0.51 0.00 68 1016.9
20260906133026 27 96 4.8 8.0 0.00 0.51 0.00 66 1016.8
20260906131532 27 122 4.8 8.0 0.00 0.51 0.00 68 1016.6
20260906130020 25 110 1.6 9.7 0.00 0.51 0.00 72 1016.6
20260906124516 24 96 4.8 8.0 0.00 0.51 0.00 75 1016.5
20260906123037 24 103 4.8 8.0 0.00 0.51 0.00 75 1016.2
20260906121535 24 100 4.8 6.4 0.00 0.51 0.00 73 1016.2
20260906120033 25 96 4.8 6.4 0.00 0.51 0.00 72 1016.3
20260906114533 25 123 4.8 6.4 0.00 0.51 0.00 70 1016.0
20260906113037 24 132 4.8 6.4 0.00 0.51 0.00 74 1016.0
20260906111524 24 107 4.8 4.8 0.00 0.51 0.00 75 1015.8
20260906110020 24 98 3.2 4.8 0.00 0.51 0.00 74 1015.7
20260906104535 24 98 1.6 3.2 0.00 0.51 0.00 73 1015.8
20260906103033 25 108 3.2 4.8 0.00 0.51 0.00 71 1015.7
20260906101508 25 117 0.0 4.8 0.00 0.51 0.00 69 1015.5
20260906100008 25 114 4.8 4.8 0.00 0.51 0.00 69 1015.5
20260906094505 25 108 4.8 6.4 0.00 0.51 0.00 68 1015.3
20260906093023 25 104 3.2 4.8 0.00 0.51 0.00 69 1015.2
20260906091512 25 104 3.2 4.8 0.00 0.51 0.00 68 1015.1
20260906090018 25 110 3.2 6.4 0.00 0.51 0.00 67 1014.9
20260906084518 26 130 3.2 6.4 0.00 0.51 0.00 67 1014.8
20260906083021 26 113 4.8 8.0 0.00 0.51 0.00 68 1014.8
20260906081507 26 101 4.8 8.0 0.00 0.51 0.00 68 1014.6
20260906080013 25 114 4.8 8.0 0.00 0.51 0.00 69 1014.8
20260906074532 25 107 6.4 8.0 0.00 0.51 0.00 70 1014.9
20260906073014 26 108 6.4 8.0 0.00 0.51 0.00 70 1015.0
20260906071514 26 97 4.8 8.0 0.00 0.51 0.00 69 1015.2
20260906070020 26 90 4.8 6.4 0.00 0.51 0.00 68 1015.2
20260906064514 26 82 4.8 6.4 0.00 0.51 0.00 67 1015.4
20260906063011 26 101 4.8 6.4 0.00 0.51 0.00 67 1015.5
20260906061519 26 94 3.2 4.8 0.00 0.51 0.00 66 1015.6
20260906060021 26 89 3.2 4.8 0.00 0.51 0.00 66 1015.5
20260906054519 26 98 4.8 4.8 0.00 0.51 0.00 67 1015.6
20260906053020 26 98 3.2 6.4 0.00 0.51 0.00 67 1015.5
20260906051522 26 103 4.8 6.4 0.00 0.51 0.00 68 1015.5
20260906050013 26 98 3.2 4.8 0.00 0.51 0.00 69 1015.6
20260906044512 26 93 4.8 6.4 0.00 0.51 0.51 69 1015.5
20260906043023 26 98 4.8 6.4 0.00 0.51 0.51 68 1015.7
20260906041536 26 103 6.4 9.7 0.00 0.51 0.51 66 1015.6
20260906040024 26 113 4.8 8.0 0.00 0.51 0.51 67 1015.6
20260906034523 26 91 4.8 8.0 0.00 0.51 0.51 67 1015.5
20260906033023 26 106 4.8 6.4 0.00 0.51 0.51 66 1015.4
20260906031512 26 92 4.8 6.4 0.00 0.51 0.51 67 1015.2
20260906030012 26 86 6.4 8.0 0.00 0.51 0.51 68 1015.1
20260906024510 26 85 6.4 8.0 0.00 0.51 0.51 68 1014.8
20260906023006 26 89 6.4 8.0 0.00 0.51 0.51 66 1014.7
20260906021515 26 107 8.0 9.7 0.00 0.51 0.51 67 1014.5
20260906020018 26 111 0.0 3.2 0.00 0.51 0.51 76 1014.2
20260906014535 27 111 3.2 9.7 0.00 0.51 0.51 65 1014.0
20260906013023 25 113 6.4 11.3 0.05 0.51 0.51 71 1014.0
20260906011516 26 119 8.0 11.3 0.20 0.51 0.51 66 1013.8
20260906010034 26 108 6.4 9.7 0.51 0.51 0.51 70 1014.0
20260906004518 28 131 8.0 11.3 0.51 0.51 0.51 60 1014.1
20260906003017 27 224 11.3 25.7 0.46 0.46 0.46 60 1014.2
20260906001530 26 314 3.2 32.2 0.30 0.30 0.30 66 1015.2
20260906000024 27 68 24.1 38.6 0.00 0.00 0.00 63 1015.4
20260905234531 28 60 14.5 38.6 0.00 0.00 0.00 61 1015.0
20260905233031 32 50 14.5 22.5 0.00 0.00 0.00 50 1014.5
20260905231540 31 234 6.4 9.7 0.00 0.00 0.00 54 1013.8
20260905230037 32 211 3.2 9.7 0.00 0.00 0.00 56 1013.8
20260905224541 32 322 14.5 19.3 0.00 0.00 0.00 52 1014.1
20260905223037 32 181 9.7 14.5 0.00 0.00 0.00 46 1013.7
20260905221526 31 165 9.7 57.9 0.00 0.00 0.00 47 1013.7
20260905220031 36 170 3.2 12.9 0.00 0.00 0.00 38 1013.7
20260905214533 36 6 6.4 8.0 0.00 0.00 0.00 36 1013.7
20260905213031 36 258 4.8 9.7 0.00 0.00 0.00 35 1013.7
20260905211540 36 224 3.2 8.0 0.00 0.00 0.00 37 1014.0
20260905210039 36 291 6.4 9.7 0.00 0.00 0.00 37 1014.2
20260905204526 36 320 9.7 14.5 0.00 0.00 0.00 36 1014.5
20260905203037 36 283 11.3 17.7 0.00 0.00 0.00 36 1014.6
20260905201534 36 91 1.6 11.3 0.00 0.00 0.00 37 1014.8
20260905200020 36 153 8.0 12.9 0.00 0.00 0.00 36 1014.8
20260905194518 35 174 4.8 9.7 0.00 0.00 0.00 38 1015.1
20260905193021 35 123 3.2 6.4 0.00 0.00 0.00 40 1015.3
20260905191523 35 36 4.8 11.3 0.00 0.00 0.00 39 1015.5
20260905190027 36 56 0.0 9.7 0.00 0.00 0.00 39 1015.6
20260905184530 35 11 1.6 9.7 0.00 0.00 0.00 40 1016.1
20260905183029 35 13 4.8 14.5 0.00 0.00 0.00 40 1016.2
20260905181525 35 330 4.8 12.9 0.00 0.00 0.00 42 1016.5
20260905180020 34 345 6.4 16.1 0.00 0.00 0.00 42 1016.6
20260905174514 35 330 8.0 11.3 0.00 0.00 0.00 41 1016.8
20260905173031 35 258 9.7 19.3 0.00 0.00 0.00 42 1017.0
20260905171530 34 330 4.8 12.9 0.00 0.00 0.00 43 1017.1
20260905170030 34 298 8.0 14.5 0.00 0.00 0.00 43 1017.2